DAL1563 KLAX-KMCI

Flight info

Callsign DAL1563
Flight time N/A
Altitude 35000
Route ORCKA5 LAS J146 DVC DDC ZOURA WUTNG3
Aircraft A319/M-SDE3FGHIRWY/LB1

Departure

Time 2026-05-04 05:38
Airport Los Angeles International Airport (KLAX)

Arrival

Time N/A
Airport Kansas City International Airport (KMCI)
Time Latitude Longitude Altitude Speed Heading
2026-05-04 05:17 33.94713 -118.40476 126 ft 0 kts 133°
2026-05-04 05:25 33.94716 -118.40480 125 ft 2 kts 133°
2026-05-04 05:25 33.94729 -118.40497 125 ft 3 kts 132°
2026-05-04 05:25 33.94742 -118.40515 125 ft 3 kts 130°
2026-05-04 05:25 33.94755 -118.40533 125 ft 3 kts 127°
2026-05-04 05:26 33.94767 -118.40554 125 ft 3 kts 114°
2026-05-04 05:26 33.94772 -118.40575 125 ft 2 kts 70°
2026-05-04 05:26 33.94770 -118.40582 125 ft 0 kts 50°
2026-05-04 05:31 33.94771 -118.40581 125 ft 0 kts 50°
2026-05-04 05:31 33.94772 -118.40578 125 ft 0 kts 50°
2026-05-04 05:32 33.94775 -118.40576 125 ft 1 kts 43°
2026-05-04 05:32 33.94782 -118.40578 125 ft 1 kts 334°
2026-05-04 05:32 33.94794 -118.40588 122 ft 4 kts 324°
2026-05-04 05:33 33.94867 -118.40574 124 ft 8 kts 65°
2026-05-04 05:33 33.94875 -118.40498 121 ft 9 kts 84°
2026-05-04 05:33 33.94882 -118.40422 125 ft 9 kts 84°
2026-05-04 05:33 33.94889 -118.40345 125 ft 9 kts 84°
2026-05-04 05:34 33.94899 -118.40268 125 ft 9 kts 82°
2026-05-04 05:34 33.94908 -118.40191 125 ft 9 kts 82°
2026-05-04 05:34 33.94917 -118.40114 121 ft 9 kts 82°
2026-05-04 05:34 33.94924 -118.40037 124 ft 9 kts 84°
2026-05-04 05:35 33.94932 -118.39960 122 ft 9 kts 75°
2026-05-04 05:35 33.94939 -118.39941 125 ft 1 kts 63°
2026-05-04 05:35 33.94943 -118.39934 125 ft 1 kts 49°
2026-05-04 05:35 33.94948 -118.39928 124 ft 1 kts 48°
2026-05-04 05:36 33.94953 -118.39921 125 ft 1 kts 48°
2026-05-04 05:36 33.94968 -118.39917 125 ft 4 kts 359°
2026-05-04 05:36 33.95007 -118.39917 122 ft 8 kts
2026-05-04 05:36 33.95043 -118.39955 123 ft 9 kts 268°
2026-05-04 05:37 33.95033 -118.40040 122 ft 14 kts 262°
2026-05-04 05:37 33.94995 -118.40394 126 ft 78 kts 263°
2026-05-04 05:37 33.94904 -118.41296 126 ft 137 kts 263°
2026-05-04 05:38 33.94657 -118.43936 881 ft 164 kts 263°
2026-05-04 05:38 33.94526 -118.45314 1592 ft 164 kts 261°
2026-05-04 05:38 33.94368 -118.46705 2064 ft 176 kts 261°
2026-05-04 05:38 33.94188 -118.48253 2356 ft 197 kts 261°
2026-05-04 05:39 33.93976 -118.49992 2604 ft 222 kts 259°
2026-05-04 05:39 33.91882 -118.52931 3535 ft 259 kts 198°
2026-05-04 05:39 33.90082 -118.53093 4333 ft 266 kts 170°
2026-05-04 05:40 33.87232 -118.50390 5976 ft 276 kts 114°
2026-05-04 05:40 33.86885 -118.48118 6812 ft 280 kts 86°
2026-05-04 05:40 33.87473 -118.45895 7565 ft 285 kts 56°
2026-05-04 05:41 33.88932 -118.44303 8279 ft 288 kts 24°
2026-05-04 05:41 33.90870 -118.43679 9030 ft 291 kts
2026-05-04 05:41 33.92824 -118.42998 9742 ft 297 kts 25°
2026-05-04 05:41 33.94451 -118.41448 10375 ft 305 kts 51°
2026-05-04 05:42 33.95742 -118.39347 10787 ft 322 kts 55°
2026-05-04 05:42 33.97043 -118.37037 10983 ft 345 kts 57°
2026-05-04 05:42 33.98378 -118.34557 11414 ft 358 kts 57°
2026-05-04 05:42 33.99744 -118.32012 12013 ft 364 kts 57°
2026-05-04 05:43 34.01132 -118.29465 12588 ft 371 kts 57°
2026-05-04 05:43 34.02588 -118.26851 13180 ft 378 kts 56°
2026-05-04 05:43 34.04088 -118.24200 13754 ft 384 kts 56°
2026-05-04 05:45 34.15203 -118.04598 17363 ft 425 kts 54°
2026-05-04 05:45 34.16869 -118.01628 17840 ft 430 kts 54°
2026-05-04 05:47 34.28986 -117.80041 21151 ft 457 kts 54°
2026-05-04 05:47 34.30775 -117.76842 21644 ft 460 kts 54°
2026-05-04 05:47 34.32574 -117.73620 22070 ft 463 kts 54°
2026-05-04 05:48 34.33771 -117.71476 22338 ft 466 kts 54°
2026-05-04 05:48 34.35597 -117.68211 22776 ft 470 kts 53°
2026-05-04 05:48 34.37475 -117.64963 23202 ft 472 kts 52°
2026-05-04 05:48 34.39411 -117.61727 23615 ft 475 kts 51°
2026-05-04 05:49 34.41380 -117.58493 24020 ft 478 kts 51°
2026-05-04 05:49 34.43367 -117.55236 24393 ft 482 kts 51°
2026-05-04 05:49 34.45356 -117.51955 24757 ft 485 kts 51°
2026-05-04 05:49 34.47348 -117.48635 25102 ft 489 kts 51°
2026-05-04 05:51 34.61500 -117.24731 27360 ft 509 kts 51°
2026-05-04 05:51 34.63573 -117.21228 27688 ft 512 kts 51°
2026-05-04 05:52 34.65653 -117.17704 27991 ft 514 kts 51°
2026-05-04 05:52 34.67738 -117.14164 28282 ft 517 kts 51°
2026-05-04 05:52 34.69834 -117.10602 28584 ft 519 kts 51°
2026-05-04 05:52 34.71941 -117.07021 28870 ft 521 kts 51°
2026-05-04 05:53 34.74061 -117.03420 29132 ft 524 kts 51°
2026-05-04 05:54 34.89064 -116.77787 30835 ft 541 kts 51°
2026-05-04 05:55 34.91260 -116.74044 31046 ft 543 kts 49°
2026-05-04 05:55 34.93687 -116.70542 31322 ft 539 kts 41°
2026-05-04 05:55 34.96242 -116.67193 31598 ft 539 kts 42°
2026-05-04 05:55 34.98766 -116.63876 31884 ft 540 kts 41°
2026-05-04 05:56 35.01322 -116.60510 32165 ft 541 kts 41°
2026-05-04 05:56 35.03876 -116.57140 32442 ft 542 kts 41°
2026-05-04 05:56 35.06434 -116.53764 32710 ft 542 kts 41°
2026-05-04 05:56 35.08996 -116.50377 32975 ft 543 kts 41°
2026-05-04 05:57 35.11565 -116.46976 33227 ft 544 kts 41°
2026-05-04 05:57 35.14132 -116.43571 33516 ft 544 kts 41°
2026-05-04 05:57 35.16696 -116.40172 33761 ft 544 kts 41°
2026-05-04 05:57 35.19266 -116.36766 34028 ft 545 kts 41°
2026-05-04 05:58 35.21838 -116.33352 34299 ft 545 kts 41°
2026-05-04 05:58 35.24381 -116.29975 34546 ft 546 kts 41°
2026-05-04 05:58 35.26953 -116.26561 34786 ft 546 kts 41°
2026-05-04 05:58 35.29529 -116.23138 34865 ft 542 kts 41°
2026-05-04 05:59 35.34596 -116.16371 34863 ft 536 kts 41°
2026-05-04 05:59 35.39632 -116.09631 34841 ft 534 kts 41°
2026-05-04 06:00 35.44621 -116.02948 34841 ft 533 kts 41°
2026-05-04 06:00 35.49622 -115.96238 34834 ft 530 kts 40°
2026-05-04 06:01 35.54592 -115.89564 34818 ft 529 kts 41°
2026-05-04 06:03 35.72398 -115.65363 34803 ft 553 kts 43°
2026-05-04 06:03 35.74954 -115.61814 34798 ft 555 kts 42°
2026-05-04 06:05 35.98024 -115.29864 34804 ft 553 kts 42°
2026-05-04 06:06 36.03091 -115.22804 34816 ft 552 kts 42°
2026-05-04 06:06 36.07761 -115.15245 34806 ft 559 kts 57°
2026-05-04 06:07 36.10932 -115.06422 34796 ft 561 kts 68°
2026-05-04 06:07 36.13700 -114.97388 34785 ft 561 kts 68°
2026-05-04 06:08 36.16467 -114.88425 34763 ft 561 kts 68°
2026-05-04 06:08 36.19243 -114.79397 34753 ft 560 kts 68°
2026-05-04 06:09 36.22008 -114.70369 34744 ft 560 kts 68°
2026-05-04 06:11 36.32961 -114.34354 34775 ft 560 kts 67°
2026-05-04 06:13 36.43867 -113.97990 34805 ft 564 kts 67°
2026-05-04 06:14 36.53307 -113.66097 34872 ft 561 kts 67°
2026-05-04 06:15 36.55983 -113.57002 34883 ft 559 kts 67°
2026-05-04 06:15 36.58648 -113.47926 34889 ft 557 kts 67°
2026-05-04 06:16 36.61299 -113.38862 34910 ft 556 kts 68°
2026-05-04 06:16 36.63930 -113.29813 34929 ft 555 kts 68°
2026-05-04 06:17 36.66530 -113.20817 34941 ft 554 kts 68°
2026-05-04 06:17 36.69136 -113.11811 34949 ft 553 kts 68°
2026-05-04 06:18 36.71739 -113.02806 34961 ft 551 kts 68°
2026-05-04 06:20 36.81982 -112.66918 34983 ft 548 kts 67°
2026-05-04 06:21 36.88319 -112.44499 34992 ft 547 kts 68°
2026-05-04 06:22 36.90814 -112.35589 34999 ft 546 kts 68°
2026-05-04 06:25 37.08164 -111.73096 34993 ft 539 kts 68°
2026-05-04 06:26 37.10599 -111.64211 34987 ft 538 kts 68°
2026-05-04 06:26 37.13020 -111.55344 34977 ft 537 kts 68°
2026-05-04 06:27 37.19018 -111.33252 34968 ft 536 kts 68°
2026-05-04 06:28 37.21405 -111.24403 34969 ft 536 kts 68°
2026-05-04 06:28 37.23790 -111.15536 34970 ft 535 kts 68°
2026-05-04 06:29 37.26151 -111.06684 34969 ft 534 kts 68°
2026-05-04 06:29 37.28492 -110.97896 34970 ft 534 kts 68°
2026-05-04 06:30 37.30849 -110.89060 34972 ft 533 kts 68°
2026-05-04 06:30 37.33197 -110.80214 34970 ft 533 kts 69°
2026-05-04 06:31 37.35521 -110.71389 34998 ft 530 kts 70°
2026-05-04 06:31 37.37819 -110.62613 34993 ft 527 kts 70°
2026-05-04 06:33 37.46929 -110.27775 34976 ft 523 kts 70°
2026-05-04 06:34 37.49176 -110.19068 34977 ft 522 kts 70°
2026-05-04 06:34 37.51414 -110.10366 34984 ft 522 kts 71°
2026-05-04 06:36 37.60291 -109.75616 35020 ft 520 kts 71°
2026-05-04 06:37 37.62487 -109.66916 35031 ft 520 kts 70°
2026-05-04 06:37 37.64318 -109.59691 35035 ft 520 kts 70°
2026-05-04 06:38 37.66513 -109.50998 35038 ft 520 kts 71°
2026-05-04 06:40 37.75176 -109.16277 35063 ft 518 kts 70°
2026-05-04 06:40 37.77326 -109.07581 35067 ft 518 kts 70°
2026-05-04 06:41 37.79466 -108.98879 35076 ft 517 kts 70°
2026-05-04 06:41 37.81004 -108.89983 35075 ft 519 kts 85°
2026-05-04 06:42 37.81392 -108.80867 35084 ft 519 kts 87°
2026-05-04 06:44 37.82848 -108.44535 35095 ft 517 kts 87°
2026-05-04 06:44 37.83188 -108.35668 35106 ft 516 kts 87°
2026-05-04 06:45 37.83519 -108.26656 35118 ft 515 kts 87°
2026-05-04 06:45 37.83846 -108.17584 35128 ft 514 kts 87°
2026-05-04 06:46 37.84174 -108.08529 35156 ft 518 kts 86°
2026-05-04 06:46 37.84501 -107.99290 35185 ft 531 kts 87°
2026-05-04 06:48 37.85738 -107.61814 35187 ft 534 kts 87°
2026-05-04 06:50 37.86846 -107.24335 35163 ft 532 kts 86°
2026-05-04 06:51 37.87109 -107.14992 35160 ft 531 kts 86°
2026-05-04 06:51 37.87359 -107.05629 35162 ft 531 kts 86°
2026-05-04 06:52 37.87598 -106.96301 35168 ft 530 kts 86°
2026-05-04 06:52 37.87830 -106.86983 35178 ft 529 kts 86°
2026-05-04 06:53 37.88061 -106.77668 35187 ft 529 kts 86°
2026-05-04 06:53 37.88286 -106.68422 35178 ft 528 kts 86°
2026-05-04 06:54 37.88503 -106.59118 35166 ft 527 kts 86°
2026-05-04 06:54 37.88708 -106.49841 35158 ft 527 kts 86°
2026-05-04 06:55 37.88906 -106.40626 35148 ft 526 kts 86°
2026-05-04 06:55 37.89096 -106.31364 35137 ft 525 kts 86°
2026-05-04 06:57 37.89791 -105.94543 35104 ft 523 kts 86°
2026-05-04 06:58 37.89950 -105.85360 35095 ft 522 kts 86°
2026-05-04 06:58 37.90090 -105.76161 35093 ft 522 kts 86°
2026-05-04 06:59 37.90221 -105.66964 35095 ft 522 kts 86°
2026-05-04 06:59 37.90364 -105.57766 35110 ft 522 kts 86°
2026-05-04 07:01 37.90819 -105.21172 35097 ft 519 kts 86°
2026-05-04 07:02 37.90918 -105.12070 35105 ft 519 kts 86°
2026-05-04 07:02 37.91005 -105.02934 35098 ft 518 kts 86°
2026-05-04 07:03 37.91085 -104.93826 35088 ft 516 kts 86°
2026-05-04 07:03 37.91165 -104.84716 35072 ft 516 kts 86°
2026-05-04 07:04 37.91238 -104.75698 35055 ft 514 kts 86°
2026-05-04 07:04 37.91300 -104.66670 34956 ft 510 kts 87°
2026-05-04 07:05 37.91352 -104.57743 34952 ft 508 kts 86°
2026-05-04 07:05 37.91404 -104.48794 34948 ft 508 kts 87°
2026-05-04 07:06 37.91449 -104.35386 34943 ft 507 kts 87°
2026-05-04 07:07 37.91477 -104.26451 34944 ft 506 kts 87°
2026-05-04 07:09 37.91534 -103.90967 34886 ft 503 kts 87°
2026-05-04 07:09 37.91528 -103.82099 34872 ft 503 kts 87°
2026-05-04 07:10 37.91516 -103.73237 34862 ft 502 kts 87°
2026-05-04 07:12 37.91408 -103.37894 34840 ft 503 kts 88°
2026-05-04 07:12 37.91358 -103.29035 34841 ft 503 kts 88°
2026-05-04 07:13 37.91306 -103.20181 34845 ft 502 kts 88°
2026-05-04 07:13 37.91252 -103.11349 34845 ft 501 kts 88°
2026-05-04 07:14 37.91091 -102.89364 34847 ft 499 kts 89°
2026-05-04 07:15 37.91018 -102.80585 34850 ft 497 kts 89°
2026-05-04 07:15 37.90933 -102.71889 34855 ft 496 kts 89°
2026-05-04 07:16 37.90835 -102.63149 34854 ft 494 kts 89°
2026-05-04 07:16 37.90735 -102.54511 34851 ft 492 kts 89°
2026-05-04 07:17 37.90631 -102.45829 34849 ft 491 kts 89°
2026-05-04 07:17 37.90528 -102.37204 34846 ft 489 kts 89°
2026-05-04 07:18 37.90418 -102.28674 34844 ft 487 kts 90°
2026-05-04 07:18 37.90291 -102.20088 34837 ft 485 kts 90°
2026-05-04 07:19 37.90154 -102.11537 34833 ft 484 kts 90°
2026-05-04 07:19 37.90026 -102.03085 34828 ft 483 kts 90°
2026-05-04 07:20 37.89896 -101.94581 34824 ft 483 kts 90°
2026-05-04 07:20 37.89752 -101.86069 34807 ft 482 kts 90°
2026-05-04 07:22 37.89118 -101.52184 34786 ft 482 kts 90°
2026-05-04 07:23 37.88934 -101.43677 34782 ft 483 kts 90°
2026-05-04 07:23 37.88745 -101.35235 34787 ft 483 kts 90°
2026-05-04 07:24 37.88562 -101.26717 34790 ft 484 kts 90°
2026-05-04 07:24 37.88370 -101.18180 34796 ft 485 kts 90°
2026-05-04 07:26 37.87527 -100.83926 34784 ft 487 kts 91°
2026-05-04 07:27 37.87307 -100.75407 34782 ft 487 kts 91°
2026-05-04 07:27 37.87075 -100.66836 34782 ft 487 kts 91°
2026-05-04 07:28 37.86837 -100.58268 34784 ft 486 kts 91°
2026-05-04 07:28 37.86597 -100.49718 34787 ft 485 kts 91°
2026-05-04 07:29 37.86348 -100.41223 34791 ft 485 kts 91°
2026-05-04 07:29 37.86083 -100.32707 34790 ft 484 kts 91°
2026-05-04 07:30 37.85814 -100.24188 34795 ft 483 kts 91°
2026-05-04 07:30 37.85555 -100.15768 34794 ft 481 kts 91°
2026-05-04 07:31 37.85280 -100.07305 34791 ft 481 kts 92°
2026-05-04 07:33 37.84402 -99.77358 34787 ft 492 kts 91°
2026-05-04 07:33 37.84283 -99.73030 34787 ft 492 kts 91°
2026-05-04 07:33 37.84083 -99.65815 34777 ft 493 kts 91°
2026-05-04 07:34 37.83847 -99.57138 34775 ft 493 kts 91°
2026-05-04 07:34 37.83616 -99.48459 34765 ft 493 kts 91°
2026-05-04 07:35 37.83387 -99.39784 34755 ft 494 kts 91°
2026-05-04 07:35 37.83160 -99.31094 34747 ft 494 kts 91°
2026-05-04 07:36 37.82927 -99.22394 34742 ft 495 kts 91°
2026-05-04 07:38 37.82018 -98.87523 34745 ft 497 kts 91°
2026-05-04 07:38 37.81795 -98.78775 34752 ft 498 kts 91°
2026-05-04 07:39 37.81576 -98.70067 34757 ft 498 kts 90°
2026-05-04 07:39 37.81374 -98.61292 34763 ft 498 kts 90°
2026-05-04 07:40 37.81184 -98.52538 34770 ft 497 kts 90°
2026-05-04 07:40 37.81002 -98.43840 34769 ft 497 kts 90°
2026-05-04 07:41 37.80828 -98.35112 34768 ft 496 kts 90°
2026-05-04 07:41 37.80659 -98.26375 34768 ft 495 kts 90°
2026-05-04 07:42 37.80504 -98.17659 34767 ft 496 kts 90°
2026-05-04 07:42 37.80361 -98.08942 34767 ft 495 kts 90°
2026-05-04 07:43 37.80225 -98.00235 34767 ft 495 kts 90°
2026-05-04 07:43 37.80096 -97.91548 34767 ft 494 kts 90°
2026-05-04 07:44 37.79972 -97.82908 34766 ft 494 kts 90°
2026-05-04 07:44 37.79851 -97.74211 34762 ft 494 kts 90°
2026-05-04 07:45 37.79730 -97.65516 34763 ft 495 kts 90°
2026-05-04 07:45 37.79608 -97.56808 34766 ft 495 kts 90°
2026-05-04 07:46 37.79490 -97.48143 34768 ft 495 kts 90°
2026-05-04 07:46 37.79378 -97.39430 34770 ft 495 kts 90°
2026-05-04 07:47 37.79263 -97.30718 34774 ft 496 kts 90°